Regional Weather Roundup
Issued by NWS

Home | Current Version | Previous Version | Text Only | Print | Product List | Glossary On
Versions: 1 2 3 4 5 6 7 8 9 10 11 12 13 14 15 16 17 18 19 20 21 22 23 24 25 26 27 28 29 30 31 32 33 34 35 36 37 38 39 40 41 42 43 44 45 46 47 48 49 50
000
ASUS44 KBMX 230210
RWRAL

ALABAMA REGIONAL WEATHER ROUNDUP
NATIONAL WEATHER SERVICE BIRMINGHAM AL
800 PM CST SAT NOV 22 2014

NOTE: "FAIR" INDICATES FEW OR NO CLOUDS BELOW 12,000 FEET
WITH NO SIGNIFICANT WEATHER AND/OR OBSTRUCTIONS TO VISIBILITY.

THE REMARK "TC" DENOTES TEMPERATURE IN DEGREES CELSIUS.

ALZ001>011-014-016>018-020-230300-
NORTH ALABAMA

CITY           SKY/WX    TMP DP  RH WIND       PRES   REMARKS
MUSCLE SHOALS  CLOUDY    59  45  59 E7        30.12S
HUNTSVILLE     CLOUDY    58  40  51 E8        30.14F
DECATUR        CLOUDY    57  40  52 E6        30.14F
HALEYVILLE     MOCLDY    59  48  66 SE9       30.12F
GADSDEN        CLOUDY    59  37  44 SE8       30.18S
$$

ALZ012-013-022-023-030>036-040>044-230300-
WEST CENTRAL ALABAMA

CITY           SKY/WX    TMP DP  RH WIND       PRES   REMARKS
TUSCALOOSA     CLOUDY    65  50  58 SE7       30.11S
$$

ALZ015-024>027-033>036-040>044-230300-
CENTRAL ALABAMA

CITY           SKY/WX    TMP DP  RH WIND       PRES   REMARKS
BIRMINGHAM     CLOUDY    61  48  62 SE8       30.16S
MONTGOMERY     CLOUDY    61  51  70 E14       30.15F
SHELBY CO ARPT CLOUDY    60  51  72 SE9       30.15S
MAXWELL AFB    CLOUDY    61  52  72 E12       30.15F
GREENVILLE     CLOUDY    58  55  90 E10       30.13F
$$

ALZ019-021-028-029-037-038-045>048-230300-
EAST CENTRAL ALABAMA

CITY           SKY/WX    TMP DP  RH WIND       PRES   REMARKS
ANNISTON       CLOUDY    60  40  47 E10       30.19F
ALEXANDER CITY CLOUDY    60  46  58 E14       30.18S
AUBURN         CLOUDY    54  45  71 E12       30.21F
$$

ALZ051>064-230300-
SOUTHWEST ALABAMA

CITY           SKY/WX    TMP DP  RH WIND       PRES   REMARKS
MOBILE         LGT RAIN  60  59  96 E14       30.07S FOG
BROOKLEY FIELD CLOUDY    61  59  93 E9        30.09S
EVERGREEN      RAIN      60  57  89 E8        30.13S
$$

ALZ049-050-065>069-230300-
SOUTHEAST ALABAMA

CITY           SKY/WX    TMP DP  RH WIND       PRES   REMARKS
DOTHAN         LGT RAIN  59  58  96 E12       30.18S FOG
OZARK          LGT RAIN  59  59 100 E10       30.14F
TROY           LGT RAIN  57  54  89 E7        30.16F
EUFAULA        LGT RAIN  61  52  72 NE6       30.18S
$$


USA.gov is the U.S. government's official web portal to all federal, state and local government web resources and services.